Fort Lewis, WA
on Wednesday, December 26, 2012

Wednesday
Previous Day Next Day
Daily Summary
 ActualAverage (KOLM)Record (KOLM)
Temperature
Mean Temperature °F 38°F  
Max Temperature 44°F 44°F 62°F (1980)
Min Temperature 38°F 33°F 17°F (1948)
Degree Days
Heating Degree Days 24 27  
Month to date heating degree days 691  
Since 1 July heating degree days 2136  
Cooling Degree Days 0 0  
Month to date cooling degree days 0  
Year to date cooling degree days 106  
Moisture
Dew Point 39°F   
Average Humidity 94    
Maximum Humidity 100    
Minimum Humidity 81    
Precipitation
Precipitation 0.17 in 0.24 in 2.45 in (1980)
Month to date precipitation 6.33  
Year to date precipitation 48.87  
Wind
Wind Speed 5 mph   
Max Wind Speed 16 mph   
Max Gust Speed 21 mph   
Visibility 8 miles   
Events Fog , Rain   

Key: T is trace of precipitation, MM is missing value
Source: NWS Daily Summary
Time(PST)TemperatureDew PointHumidity Pressure Visibility Wind DirectionWind SpeedGust SpeedPrecipitationEvents Conditions
12:18 AM 39.2°F 39.2°F 100% 29.69 in 0.5 miles SSE 2.3 mph - N/A Fog Fog
12:28 AM 39.2°F 39.2°F 100% 29.69 in 0.8 miles South 1.2 mph - N/A   Overcast
12:43 AM 39.2°F 39.2°F 100% 29.69 in 1.2 miles SW 2.3 mph - N/A   Overcast
12:48 AM 39.2°F 39.2°F 100% 29.69 in 3.0 miles SW 1.2 mph - N/A   Overcast
12:58 AM 39.0°F 38.8°F 99% 29.71 in 5.0 miles SW 1.2 mph - N/A   Overcast
1:03 AM 39.2°F 39.2°F 100% 29.69 in 5.0 miles Calm Calm - N/A   Overcast
1:18 AM 39.2°F 39.2°F 100% 29.69 in 3.0 miles Calm Calm - N/A   Overcast
1:23 AM 39.2°F 39.2°F 100% 29.69 in 2.0 miles SSE 2.3 mph - N/A   Overcast
1:28 AM 39.2°F 39.2°F 100% 29.69 in 1.8 miles SSE 2.3 mph - N/A   Overcast
1:33 AM 39.2°F 39.2°F 100% 29.69 in 1.8 miles SE 2.3 mph - N/A   Overcast
1:38 AM 39.2°F 39.2°F 100% 29.69 in 2.5 miles SSE 2.3 mph - N/A   Overcast
1:43 AM 39.2°F 39.2°F 100% 29.69 in 3.0 miles ESE 2.3 mph - N/A   Overcast
1:48 AM 39.2°F 39.2°F 100% 29.69 in 3.0 miles ESE 2.3 mph - N/A   Overcast
1:58 AM 38.7°F 38.5°F 99% 29.72 in 4.0 miles ESE 2.3 mph - N/A   Overcast
2:06 AM 39.2°F 39.2°F 100% 29.70 in 5.0 miles SSE 2.3 mph - N/A   Light Drizzle
2:21 AM 39.2°F 39.2°F 100% 29.70 in 5.0 miles SE 4.6 mph - N/A   Light Drizzle
2:26 AM 39.2°F 37.4°F 93% 29.70 in 5.0 miles SE 4.6 mph - N/A   Light Drizzle
2:36 AM 39.2°F 37.4°F 93% 29.70 in 6.0 miles ESE 4.6 mph - N/A   Light Drizzle
2:58 AM 38.8°F 38.5°F 99% 29.72 in 6.0 miles NE 3.5 mph - 0.05 in Rain Light Rain
3:16 AM 39.2°F 39.2°F 100% 29.70 in 5.0 miles Variable 1.2 mph - N/A Rain Light Rain
3:58 AM 38.7°F 38.5°F 99% 29.72 in 8.0 miles SE 2.3 mph - 0.06 in   Light Drizzle
4:13 AM 39.2°F 37.4°F 93% 29.70 in 10.0 miles SSE 3.5 mph - N/A   Light Drizzle
4:18 AM 39.2°F 37.4°F 93% 29.70 in 10.0 miles SSE 3.5 mph - N/A   Light Drizzle
4:19 AM 39.2°F 37.4°F 93% 29.70 in 10.0 miles SE 3.5 mph - N/A   Overcast
4:58 AM 38.7°F 38.3°F 99% 29.73 in 10.0 miles SE 3.5 mph - 0.01 in   Overcast
5:27 AM 39.2°F 39.2°F 100% 29.71 in 10.0 miles Calm Calm - N/A   Overcast
5:52 AM 39.2°F 39.2°F 100% 29.72 in 10.0 miles SSE 2.3 mph - N/A   Overcast
5:57 AM 39.2°F 39.2°F 100% 29.72 in 8.0 miles SSE 2.3 mph - N/A   Light Drizzle
5:58 AM 38.8°F 38.5°F 99% 29.74 in 8.0 miles SSE 2.3 mph - 0.00 in   Light Drizzle
6:12 AM 39.2°F 39.2°F 100% 29.72 in 9.0 miles Calm Calm - N/A   Overcast
6:30 AM 39.2°F 39.2°F 100% 29.72 in 10.0 miles South 1.2 mph - N/A Rain Light Rain
6:40 AM 39.2°F 39.2°F 100% 29.72 in 9.0 miles Calm Calm - N/A   Light Drizzle
6:42 AM 39.2°F 39.2°F 100% 29.72 in 9.0 miles Calm Calm - N/A   Overcast
6:47 AM 39.2°F 39.2°F 100% 29.72 in 10.0 miles Calm Calm - N/A   Overcast
6:58 AM 38.7°F 38.5°F 99% 29.75 in 10.0 miles SSE 2.3 mph - 0.00 in   Overcast
7:53 AM 39.2°F 37.4°F 93% 29.74 in 10.0 miles SE 3.5 mph - N/A   Overcast
7:58 AM 38.3°F 38.1°F 99% 29.76 in 10.0 miles SE 2.3 mph - N/A   Overcast
8:58 AM 38.7°F 38.3°F 99% 29.77 in 10.0 miles SE 6.9 mph - N/A   Overcast
9:58 AM 40.5°F 40.1°F 99% 29.80 in 10.0 miles SE 3.5 mph - N/A   Overcast
10:53 AM 42.8°F 41.0°F 93% 29.78 in 10.0 miles SSE 2.3 mph - N/A   Overcast
10:58 AM 42.1°F 40.8°F 95% 29.80 in 10.0 miles SSE 3.5 mph - N/A   Overcast
11:38 AM 44.6°F 42.8°F 93% 29.77 in 10.0 miles SSE 9.2 mph - N/A   Mostly Cloudy
11:58 AM 44.8°F 41.5°F 88% 29.80 in 10.0 miles South 12.7 mph - N/A   Mostly Cloudy
12:23 PM 44.6°F 41.0°F 87% 29.78 in 10.0 miles South 10.4 mph 19.6 mph N/A   Overcast
12:43 PM 44.6°F 39.2°F 81% 29.77 in 10.0 miles South 16.1 mph - N/A   Overcast
12:58 PM 44.2°F 39.9°F 85% 29.80 in 10.0 miles South 11.5 mph - N/A   Mostly Cloudy
1:38 PM 44.6°F 39.2°F 81% 29.78 in 10.0 miles South 11.5 mph - N/A   Overcast
1:43 PM 44.6°F 41.0°F 87% 29.78 in 10.0 miles South 11.5 mph - N/A   Overcast
1:48 PM 44.6°F 39.2°F 81% 29.78 in 10.0 miles South 10.4 mph - N/A   Overcast
1:53 PM 44.6°F 39.2°F 81% 29.78 in 10.0 miles South 11.5 mph - N/A   Overcast
1:58 PM 44.1°F 39.9°F 85% 29.80 in 10.0 miles South 9.2 mph - N/A   Overcast
2:13 PM 44.6°F 39.2°F 81% 29.79 in 10.0 miles South 10.4 mph - N/A   Mostly Cloudy
2:43 PM 42.8°F 39.2°F 87% 29.79 in 10.0 miles SSE 12.7 mph - N/A   Mostly Cloudy
2:58 PM 43.7°F 39.7°F 86% 29.81 in 10.0 miles SSE 10.4 mph - N/A   Scattered Clouds
3:13 PM 42.8°F 39.2°F 87% 29.80 in 10.0 miles SSE 10.4 mph - N/A   Mostly Cloudy
3:50 PM 42.8°F 39.2°F 87% 29.81 in 10.0 miles SSE 8.1 mph - N/A   Overcast
3:58 PM 43.3°F 39.7°F 87% 29.83 in 10.0 miles SSE 9.2 mph - 0.01 in   Overcast
4:13 PM 42.8°F 41.0°F 93% 29.81 in 10.0 miles SSE 11.5 mph - N/A   Light Drizzle
4:25 PM 42.8°F 39.2°F 87% 29.81 in 10.0 miles SSE 12.7 mph - N/A   Overcast
4:40 PM 42.8°F 39.2°F 87% 29.82 in 10.0 miles SSE 12.7 mph - N/A   Overcast
4:45 PM 42.8°F 39.2°F 87% 29.82 in 10.0 miles SSE 13.8 mph - N/A   Overcast
4:58 PM 41.9°F 39.9°F 93% 29.84 in 10.0 miles SSE 11.5 mph - 0.02 in   Overcast
5:18 PM 41.0°F 39.2°F 93% 29.82 in 10.0 miles SSE 11.5 mph - N/A   Overcast
5:58 PM 41.7°F 39.9°F 93% 29.85 in 10.0 miles SSE 9.2 mph - N/A   Overcast
6:58 PM 41.9°F 39.6°F 91% 29.86 in 10.0 miles SSE 12.7 mph - N/A   Overcast
7:38 PM 41.0°F 39.2°F 93% 29.85 in 10.0 miles SSE 9.2 mph - N/A   Overcast
7:48 PM 41.0°F 39.2°F 93% 29.85 in 10.0 miles SSE 11.5 mph - N/A   Overcast
7:58 PM 41.9°F 39.7°F 92% 29.88 in 10.0 miles SSE 10.4 mph - 0.01 in   Overcast
8:03 PM 41.0°F 39.2°F 93% 29.86 in 10.0 miles SSE 12.7 mph - N/A   Overcast
8:08 PM 41.0°F 39.2°F 93% 29.86 in 10.0 miles SSE 11.5 mph - N/A   Overcast
8:33 PM 41.0°F 39.2°F 93% 29.87 in 10.0 miles SSE 9.2 mph - N/A   Overcast
8:58 PM 41.7°F 39.6°F 92% 29.89 in 10.0 miles SSE 11.5 mph - N/A   Overcast
9:53 PM 41.0°F 39.2°F 93% 29.89 in 10.0 miles SSE 12.7 mph - N/A   Overcast
9:58 PM 41.0°F 39.2°F 93% 29.91 in 10.0 miles SSE 11.5 mph - N/A   Overcast
10:33 PM 41.0°F 39.2°F 93% 29.90 in 10.0 miles SSE 13.8 mph - N/A   Overcast
10:58 PM 41.7°F 38.7°F 89% 29.93 in 10.0 miles South 11.5 mph - N/A   Overcast
11:06 PM 41.0°F 39.2°F 93% 29.91 in 10.0 miles South 11.5 mph - N/A   Overcast
11:21 PM 41.0°F 39.2°F 93% 29.92 in 10.0 miles South 13.8 mph - N/A   Light Drizzle
11:46 PM 41.0°F 39.2°F 93% 29.92 in 10.0 miles South 13.8 mph 20.7 mph N/A   Light Drizzle
11:58 PM 41.2°F 39.0°F 92% 29.95 in 10.0 miles South 15.0 mph 20.7 mph 0.01 in   Light Drizzle
Moon Phase
Dec. 26 Dec. 28 Jan. 04 Jan. 11 Jan. 18
Sunrise:07:55 AM (PST) Moon Rise:03:26 PM (PST)12/26
Sunset:04:26 PM (PST) Moon Set:06:21 AM (PST)12/26

Copyright © 2014 The Weather Underground, Inc.